This is the latest recevied weather packets stored in our database for station/object KB1YYC. If no packets are shown the sender has not sent any weather packets the latest 10 day(s).
| Time | Temp. | Humidity | Pressure | Rain* | Wind** | Luminosity | Snow |
|---|---|---|---|---|---|---|---|
| 1777928167 | 21.11° C | 32% | 1005.3 hPa | 0 mm | - | 60 W/m² | - |
| 1777927864 | 21.11° C | 33% | 1005.3 hPa | 0 mm | - | 77 W/m² | - |
| 1777927562 | 21.11° C | 32% | 1005.3 hPa | 0 mm | - | 74 W/m² | - |
| 1777927261 | 21.11° C | 33% | 1005.3 hPa | 0 mm | - | 80 W/m² | - |
| 1777926959 | 20.56° C | 33% | 1005.3 hPa | 0 mm | - | 95 W/m² | - |
| 1777926656 | 20.56° C | 34% | 1005.1 hPa | 0 mm | - | 89 W/m² | - |
| 1777926351 | 21.11° C | 33% | 1005.1 hPa | 0 mm | - | 124 W/m² | - |
| 1777926048 | 21.67° C | 33% | 1005.4 hPa | 0 mm | - | 84 W/m² | - |
| 1777925745 | 21.11° C | 34% | 1005.5 hPa | 0 mm | - | 84 W/m² | - |
| 1777925443 | 20.56° C | 35% | 1005.6 hPa | 0 mm | - | 82 W/m² | - |
| 1777925139 | 20.56° C | 34% | 1005.6 hPa | 0 mm | - | 77 W/m² | - |
| 1777924836 | 20.56° C | 34% | 1005.6 hPa | 0 mm | - | 102 W/m² | - |
| 1777924532 | 20.56° C | 34% | 1005.3 hPa | 0 mm | - | 114 W/m² | - |
| 1777924229 | 20.56° C | 34% | 1005.4 hPa | 0 mm | - | 338 W/m² | - |
| 1777923926 | 21.11° C | 34% | 1005.3 hPa | 0 mm | - | 378 W/m² | - |
| 1777923621 | 21.11° C | 34% | 1005.4 hPa | 0 mm | - | 396 W/m² | - |
| 1777923318 | 21.11° C | 35% | 1005.5 hPa | 0 mm | - | 355 W/m² | - |
| 1777923017 | 21.11° C | 35% | 1005.5 hPa | 0 mm | - | 254 W/m² | - |
| 1777922715 | 21.11° C | 35% | 1005.5 hPa | 0 mm | - | 296 W/m² | - |
| 1777922413 | 21.11° C | 35% | 1005.5 hPa | 0 mm | - | 288 W/m² | - |
| 1777922110 | 20.56° C | 36% | 1005.5 hPa | 0 mm | - | 307 W/m² | - |
| 1777921806 | 20.56° C | 37% | 1005.6 hPa | 0 mm | - | 387 W/m² | - |
| 1777921502 | 20.56° C | 37% | 1005.6 hPa | 0 mm | - | 452 W/m² | - |
| 1777921198 | 20.56° C | 36% | 1005.5 hPa | 0 mm | - | 376 W/m² | - |
| 1777920895 | 20° C | 37% | 1005.6 hPa | 0 mm | - | 426 W/m² | - |
* Rain latest hour (hover to see other rain measurements)
** Current wind speed in m/s (hover to see current wind gust speed)